Home   Weather   43°02'N, 88°11'W   Past weeks
Flag for USA

Past Weather in 43°02'N, 88°11'W, USA — Yesterday and Last 2 Weeks

Now
52 °F

Low clouds.


Feels Like: 51 °F
Forecast: 60 / 52 °F
Wind: 5 mph from Northeast

Location: Milwaukee / Timmerman

Current Time: Jun 16, 2019 at 1:57:53 am

Latest Report: Jun 16, 2019 at 1:35 am


Visibility: 10 mi

Pressure: 29.80 "Hg

Humidity: 82%

Dew Point: 46 °F

Location of 43°02'N, 88°11'WLocation

Past Weather in 43°02'N, 88°11'W — Graph

°F

43°02'N, 88°11'W Temperature Yesterday

Maximum temperature yesterday: 75 °F (at 10:45 am)
Minimum temperature yesterday: 52 °F (at 3:45 pm)
Average temperature yesterday: 59 °F

High & Low Weather Summary for the Past Weeks

 TemperatureHumidityPressure
High79 °F (Jun 4, 4:45 pm)100% (Jun 7, 7:00 am)30.19 "Hg (Jun 7, 7:00 am)
Low41 °F (Jun 3, 3:55 am)22% (Jun 11, 12:45 pm)29.68 "Hg (Jun 5, 1:55 am)
Average58 °F65%29.94 "Hg
* Reported Jun 1 1:15 am — Jun 16 1:15 am, 43°02'N, 88°11'W. Weather by CustomWeather, © 2019

Note: Actual official high and low records may vary slightly from our data, if they occured in-between our weather recording intervals... More about our weather records

Advertising

43°02'N, 88°11'W Weather History for the Previous 24 Hours

Scroll right to see more
 ConditionsComfort  
Time TempWeatherWind HumidityBarometerVisibility
1:15 am
Sun, Jun 16
52 °FLow clouds.5 mph82%29.80 "Hg10 mi
12:35 am54 °FLow clouds.6 mph77%29.81 "Hg10 mi
12:15 am54 °FLow clouds.7 mph77%29.81 "Hg10 mi
11:55 pm
Sat, Jun 15
54 °FLow clouds.6 mph72%29.82 "Hg10 mi
11:35 pm54 °FLow clouds.7 mph72%29.82 "Hg10 mi
11:15 pm54 °FLow clouds.8 mph72%29.81 "Hg10 mi
10:55 pm54 °FLow clouds.7 mph72%29.83 "Hg10 mi
10:35 pm54 °FLow clouds.9 mph67%29.83 "Hg10 mi
10:15 pm54 °FLow clouds.9 mph67%29.83 "Hg10 mi
9:35 pm54 °FLow clouds.8 mph67%29.83 "Hg10 mi
9:15 pm54 °FLow clouds.8 mph67%29.84 "Hg10 mi
8:55 pm54 °FLow clouds.7 mph72%29.84 "Hg10 mi
7:45 pm54 °FLow clouds.9 mph77%29.83 "Hg10 mi
6:45 pm54 °FLow clouds.12 mph77%29.83 "Hg10 mi
5:45 pm54 °FLow clouds.9 mph77%29.83 "Hg10 mi
4:45 pm52 °FLow clouds.9 mph82%29.83 "Hg10 mi
3:45 pm52 °FLow clouds.12 mph82%29.82 "Hg10 mi
2:45 pm54 °FLow clouds.16 mph77%29.82 "Hg10 mi
2:12 pm55 °FMostly cloudy.12 mph77%29.82 "Hg10 mi
1:45 pm57 °FMostly cloudy.17 mph72%29.81 "Hg10 mi
12:45 pm64 °FMostly cloudy.15 mph64%29.80 "Hg10 mi
11:45 am72 °FMostly cloudy.9 mph57%29.78 "Hg10 mi
11:10 am73 °FPartly sunny.No wind57%29.77 "Hg10 mi
10:45 am75 °FSunny.5 mph54%29.76 "Hg10 mi
9:45 am72 °FScattered clouds.5 mph57%29.76 "Hg10 mi
8:45 am68 °FPartly sunny.9 mph64%29.79 "Hg10 mi
7:45 am66 °FSunny.12 mph64%29.79 "Hg10 mi
7:15 am63 °FSunny.5 mph68%29.77 "Hg10 mi
6:55 am61 °FSunny.7 mph72%29.76 "Hg10 mi
6:35 am61 °FSunny.5 mph72%29.76 "Hg10 mi
6:15 am59 °FSunny.3 mph77%29.76 "Hg10 mi
5:55 am59 °FSunny.3 mph72%29.75 "Hg10 mi
5:35 am59 °FSunny.5 mph72%29.76 "Hg10 mi
5:15 am59 °FSunny.6 mph72%29.77 "Hg10 mi
4:55 am59 °FClear.6 mph72%29.77 "Hg10 mi
4:35 am59 °FPassing clouds.7 mph72%29.77 "Hg10 mi
4:15 am59 °FPassing clouds.5 mph72%29.77 "Hg10 mi
3:55 am59 °FPassing clouds.3 mph72%29.77 "Hg10 mi
3:35 am61 °FPassing clouds.5 mph68%29.78 "Hg10 mi
2:55 am61 °FPassing clouds.8 mph68%29.78 "Hg10 mi
2:35 am61 °FPassing clouds.10 mph68%29.78 "Hg10 mi
2:15 am61 °FPassing clouds.10 mph68%29.78 "Hg10 mi
1:55 am61 °FOvercast.12 mph68%29.78 "Hg10 mi
1:35 am61 °FOvercast.12 mph68%29.79 "Hg10 mi
Weather by CustomWeather, © 2019

See weather overview